CYVO

Val-d'Or Airport

ICAO Code CYVO
IATA Code YVO
Name Val-d'Or Airport
Location Val-d'Or, Quebec, CA
Elevation 1105 Feet / 336.8 Meters
Latitude 48.05333333
Longitude -77.78277778
METAR CYVO 182300Z 31003KT 260V330 15SM FEW080 FEW100 BKN250 26/09 A2986 RMK CU1AC1CI5 CU TR SLP118 DENSITY ALT 2800FT
Extra information Display NOTAMS
Display Charts
Runway Length Width Surface Elevation
18 10000 ft 150 ft ASP 1101 ft
36 10000 ft 150 ft ASP 1099 ft

Mandatory Routes

Val-d'Or Airport

Direction Destination Level Remark Type Route
DEP TO CYQB H&L RNAV OLAVO OLAVO ARR
DEP TO CYUL H&L RNAV TAGET IKMOL LAFLEUR ARR